Bradford County (N27)
Towanda, PA
Field Elevation: 730
Lat: 41°44.40N  Long: 76°26.83W
CTAF/Unicom Freq: 123.0000
   
     For Weather-by-Phone, call (570) 265-1024
Weather Advisories
9/2/2014 11:31 Z
Altimeter 29.95" Hg
Wind 120° @ 0 KT
Gusts --
Visibility 6 SM
Ceiling CLR
Temperature 21° C (70° F)
Dewpoint 21° C (70° F)
Relative Humidity 100%
Density Altitude --
Condensation Altitude 700 feet
  Wind and Runways
Indicated Runway = 5
History
 
 
More Info
All DigiWx sites map
NOAA Forecast
 
Airport IQ 5010
(LHV) Lock Haven
(PS81) Robert Packer Hospital
 
about DigiWx
 
FAA Disclaimer: The data displayed is for advisory purposes only and is not to be used for flight planning or operations. For official data, please call (570) 265-1024 to hear the current automated AWOS voice message.
  METAR N27 021131Z AUTO 12000KT 6SM CLR 21/21 A2995